Location: Chicken Strip
(32.5149°N, 97.5950°W)
Time: 21:36:17
(UTC+00:00)

Daily predictions for brighter satellites

Satellite Brightness Start Highest point End
(mag) Time Altitude Azimuth Time Altitude Azimuth Time Altitude Azimuth
Milstar 3 Cent rocket 3.5 12:01:50 17° WSW 12:05:23 35° SSW 12:12:42 10° SE
Meteor 2-17 Rocket 4.4 12:00:09 10° N 12:06:14 83° W 12:12:15 10° S
Cosmos 1933 3.2 12:06:47 10° NNW 12:10:40 60° W 12:14:32 10° S
ERS-2 1.7 12:08:34 10° NNE 12:11:30 72° ESE 12:14:23 10° S
Cosmos 1627 Rocket 4.5 12:05:54 10° N 12:12:17 80° W 12:18:36 10° S
SAR-Lupe-2 4.5 12:09:11 10° NNE 12:12:41 52° E 12:16:10 10° S
Cosmos 1862 3.2 12:09:13 10° SSW 12:12:57 54° W 12:16:44 10° N
Cosmos 2151 3.1 12:08:54 10° S 12:13:03 77° E 12:17:15 10° N
COSMO-SKYMED 1 2.7 12:08:59 10° S 12:13:13 54° W 12:17:29 10° NNW
Meteor 2-3 Rocket 4.2 12:08:10 10° SW 12:13:15 36° WNW 12:18:21 10° N
PSLV R/B 3.4 12:10:34 10° N 12:14:50 68° WNW 12:19:03 10° SSW
GENESIS II 4.1 12:18:28 10° SSW 12:22:17 86° WNW 12:26:10 10° NNE
USA 215 3.5 12:17:07 10° NNE 12:23:20 49° NW 12:29:33 10° WSW
BlueWalker 3 2.0 12:25:35 15° NW 12:28:41 63° SW 12:32:27 10° SSE
ATLAS 2A CENTAUR R/B 3.4 12:31:54 10° WSW 12:34:28 16° SSW 12:36:08 10° SSE
SMAP 3.6 12:32:41 10° NNE 12:37:19 65° E 12:41:55 10° S
Cosmos 1110 Rocket 4.0 12:32:43 10° NNW 12:38:02 79° WSW 12:43:17 10° S
Cosmos 1842 Rocket 3.9 12:34:24 10° N 12:38:50 70° E 12:43:15 10° SSE
BREEZE-M R/B 3.2 12:32:16 10° NW 12:39:06 90° NW 12:42:34 10° SE
Aureole 2 4.4 12:36:42 10° N 12:39:41 63° ENE 12:42:32 10° SSE
Cosmos 1437 Rocket 2.9 12:38:02 10° SSW 12:41:35 43° W 12:45:07 10° N
Cosmos 1782 4.2 12:39:22 10° NW 12:42:04 18° W 12:44:45 10° SW
H-2A R/B 3.6 12:40:26 10° NW 12:42:31 13° WNW 12:44:37 10° W
Helios 1B rocket 2.7 12:41:18 10° N 12:45:05 44° WNW 12:48:51 10° SW
CZ-4B R/B 4.2 12:43:47 10° NNE 12:47:50 76° ESE 12:52:01 10° S
COSMOS 2455 4.5 12:45:11 10° WNW 12:48:11 14° WSW 12:51:10 10° SW
DELTA 2 DEB (DPAF) 4.1 12:44:25 10° SSE 12:48:41 86° E 12:53:00 10° NNW
Cosmos 1515 4.1 12:46:17 10° NNW 12:49:38 37° W 12:52:58 10° SSW
Cosmos 1461 3.0 12:49:02 10° SSW 12:53:31 78° WNW 12:57:58 10° NNE
Cosmos 1943 Rocket 3.5 12:52:26 10° N 12:57:36 40° ENE 13:02:43 10° SE
APEX 3.5 23:48:44 10° SW 23:51:51 48° WNW 23:54:41 10° N
Cosmos-2242 3.0 23:49:02 10° S 23:53:22 76° E 23:57:41 10° N
CZ-2D R/B 3.8 23:49:47 10° S 23:53:24 61° W 23:57:03 10° NNW
